When you browse on this site, cookies collect data to enhance your experience and personalize the content and advertising you see.
Visit our Privacy Policy to learn more. By continuing to use the site, you agree to this use of cookies and data.
  • In United Kingdom
  • List of Countries
  • For 7 days
  • Water Temperature
  • Weather Map
  • Weather Widgets
  • user-avatar
    Login

    Hourly Weather Trowbridge

    Today, 6 June, Saturday

    Time Temperature Precipitation Wind Pressure Humidity
    00:00 +5°C° 0 mm 5 mps 746 mmHg 88%
    01:00 +5°C° 0 mm 5 mps 746 mmHg 87%
    02:00 +5°C° 0 mm 5 mps 746 mmHg 86%
    03:00 +5°C° 0 mm 5 mps 746 mmHg 85%
    04:00 +4°C° 0 mm 6 mps 746 mmHg 82%
    05:00 +5°C° 0 mm 7 mps 746 mmHg 80%
    06:00 +5°C° 0 mm 7 mps 746 mmHg 79%
    07:00 +6°C° 0 mm 8 mps 746 mmHg 76%
    08:00 +7°C° 0 mm 8 mps 746 mmHg 74%
    09:00 +7°C° 0 mm 9 mps 746 mmHg 71%
    10:00 +7°C° 0.1 mm 9 mps 746 mmHg 76%
    11:00 +7°C° 0.1 mm 9 mps 746 mmHg 81%
    12:00 +9°C° 0 mm 7 mps 746 mmHg 89%
    13:00 +9°C° 0.2 mm 8 mps 746 mmHg 89%
    14:00 +10°C° 0.2 mm 8 mps 746 mmHg 88%
    15:00 +10°C° 0.2 mm 8 mps 746 mmHg 88%
    16:00 +11°C° 0.2 mm 7 mps 747 mmHg 86%
    17:00 +11°C° 0.2 mm 7 mps 747 mmHg 85%
    18:00 +12°C° 0.2 mm 7 mps 747 mmHg 83%
    19:00 +10°C° 0.1 mm 6 mps 747 mmHg 86%
    20:00 +9°C° 0.1 mm 5 mps 748 mmHg 89%
    21:00 +8°C° 0.1 mm 4 mps 749 mmHg 92%
    22:00 +9°C° 0 mm 3 mps 749 mmHg 92%
    23:00 +8°C° 0 mm 3 mps 749 mmHg 93%

    Tomorrow, 7 June, Sunday

    Time Temperature Precipitation Wind Pressure Humidity
    00:00 +7°C° 0 mm 3 mps 749 mmHg 94%
    01:00 +7°C° 0 mm 2 mps 750 mmHg 94%
    02:00 +7°C° 0 mm 2 mps 750 mmHg 94%
    03:00 +7°C° 0 mm 2 mps 750 mmHg 95%
    04:00 +7°C° 0 mm 2 mps 750 mmHg 94%
    05:00 +8°C° 0 mm 2 mps 750 mmHg 94%
    06:00 +9°C° 0 mm 2 mps 751 mmHg 93%
    07:00 +12°C° 0 mm 2 mps 751 mmHg 87%
    08:00 +13°C° 0 mm 2 mps 752 mmHg 80%
    09:00 +15°C° 0 mm 2 mps 752 mmHg 74%
    10:00 +16°C° 0 mm 2 mps 753 mmHg 71%
    11:00 +17°C° 0 mm 3 mps 753 mmHg 68%
    12:00 +17°C° 0 mm 3 mps 753 mmHg 65%
    13:00 +17°C° 0.4 mm 3 mps 754 mmHg 70%
    14:00 +17°C° 0.4 mm 3 mps 754 mmHg 74%
    15:00 +17°C° 0.4 mm 4 mps 754 mmHg 79%
    16:00 +15°C° 0.4 mm 4 mps 754 mmHg 81%
    17:00 +15°C° 0.4 mm 4 mps 755 mmHg 84%
    18:00 +14°C° 0.4 mm 4 mps 755 mmHg 86%
    19:00 +13°C° 0 mm 4 mps 755 mmHg 88%
    20:00 +11°C° 0 mm 3 mps 756 mmHg 90%
    21:00 +10°C° 0 mm 3 mps 757 mmHg 93%
    22:00 +9°C° 0 mm 2 mps 757 mmHg 93%
    23:00 +8°C° 0 mm 2 mps 757 mmHg 94%

    Day after tomorrow, 8 June, Monday

    Time Temperature Precipitation Wind Pressure Humidity
    00:00 +8°C° 0 mm 2 mps 757 mmHg 95%
    01:00 +7°C° 0 mm 2 mps 758 mmHg 95%
    02:00 +7°C° 0 mm 3 mps 758 mmHg 95%
    03:00 +5°C° 0 mm 3 mps 758 mmHg 96%
    04:00 +7°C° 0 mm 3 mps 758 mmHg 94%
    05:00 +8°C° 0 mm 3 mps 759 mmHg 93%
    06:00 +8°C° 0 mm 3 mps 759 mmHg 92%
    07:00 +10°C° 0 mm 3 mps 759 mmHg 85%
    08:00 +11°C° 0 mm 3 mps 760 mmHg 79%
    09:00 +12°C° 0 mm 3 mps 760 mmHg 72%
    10:00 +13°C° 0 mm 3 mps 760 mmHg 69%
    11:00 +14°C° 0 mm 3 mps 760 mmHg 65%
    12:00 +16°C° 0 mm 3 mps 760 mmHg 62%
    13:00 +16°C° 0 mm 3 mps 760 mmHg 62%
    14:00 +16°C° 0 mm 3 mps 760 mmHg 62%
    15:00 +17°C° 0 mm 3 mps 760 mmHg 62%
    16:00 +16°C° 0 mm 3 mps 760 mmHg 67%
    17:00 +15°C° 0 mm 2 mps 760 mmHg 71%
    18:00 +15°C° 0 mm 2 mps 760 mmHg 76%
    19:00 +14°C° 0 mm 2 mps 760 mmHg 78%
    20:00 +12°C° 0 mm 2 mps 761 mmHg 81%
    21:00 +10°C° 0 mm 2 mps 761 mmHg 84%
    22:00 +10°C° 0 mm 1 mps 761 mmHg 83%
    23:00 +10°C° 0 mm 1 mps 761 mmHg 83%

    9 June, Tuesday

    Time Temperature Precipitation Wind Pressure Humidity
    00:00 +9°C° 0 mm 1 mps 762 mmHg 82%
    01:00 +9°C° 0 mm 1 mps 762 mmHg 80%
    02:00 +9°C° 0 mm 1 mps 761 mmHg 79%
    03:00 +9°C° 0 mm 1 mps 761 mmHg 77%
    04:00 +10°C° 0 mm 1 mps 761 mmHg 76%
    05:00 +10°C° 0 mm 1 mps 762 mmHg 75%
    06:00 +11°C° 0 mm 1 mps 762 mmHg 75%
    07:00 +12°C° 0 mm 1 mps 762 mmHg 73%
    08:00 +13°C° 0 mm 1 mps 762 mmHg 71%
    09:00 +13°C° 0 mm 1 mps 762 mmHg 69%
    10:00 +14°C° 0 mm 1 mps 762 mmHg 69%
    11:00 +15°C° 0 mm 1 mps 762 mmHg 68%
    12:00 +16°C° 0 mm 1 mps 762 mmHg 68%
    13:00 +16°C° 0.1 mm 2 mps 762 mmHg 70%
    14:00 +16°C° 0.1 mm 2 mps 761 mmHg 72%
    15:00 +16°C° 0.1 mm 2 mps 761 mmHg 74%
    16:00 +16°C° 0.1 mm 3 mps 761 mmHg 77%
    17:00 +14°C° 0.1 mm 3 mps 761 mmHg 80%
    18:00 +14°C° 0.1 mm 3 mps 761 mmHg 83%
    19:00 +13°C° 0 mm 3 mps 761 mmHg 86%
    20:00 +11°C° 0 mm 3 mps 761 mmHg 88%
    21:00 +10°C° 0 mm 2 mps 761 mmHg 91%
    22:00 +10°C° 0 mm 2 mps 761 mmHg 91%
    23:00 +9°C° 0 mm 2 mps 761 mmHg 92%

    10 June, Wednesday

    Time Temperature Precipitation Wind Pressure Humidity
    00:00 +10°C° 0 mm 1 mps 760 mmHg 92%
    01:00 +10°C° 0 mm 1 mps 760 mmHg 91%
    02:00 +10°C° 0 mm 2 mps 760 mmHg 91%
    03:00 +10°C° 0 mm 2 mps 760 mmHg 90%
    04:00 +10°C° 0 mm 2 mps 760 mmHg 90%
    05:00 +10°C° 0 mm 2 mps 759 mmHg 90%
    06:00 +12°C° 0 mm 2 mps 759 mmHg 90%
    07:00 +12°C° 0.1 mm 2 mps 759 mmHg 88%
    08:00 +13°C° 0.1 mm 2 mps 759 mmHg 85%
    09:00 +13°C° 0.1 mm 2 mps 759 mmHg 82%
    10:00 +13°C° 0.1 mm 2 mps 758 mmHg 82%
    11:00 +13°C° 0.1 mm 2 mps 758 mmHg 82%
    12:00 +13°C° 0.1 mm 2 mps 758 mmHg 83%
    13:00 +12°C° 0 mm 3 mps 757 mmHg 82%
    14:00 +12°C° 0 mm 4 mps 756 mmHg 81%
    15:00 +12°C° 0 mm 4 mps 756 mmHg 80%
    16:00 +11°C° 0.2 mm 4 mps 755 mmHg 85%
    17:00 +11°C° 0.2 mm 3 mps 755 mmHg 90%
    18:00 +10°C° 0.2 mm 3 mps 754 mmHg 94%
    19:00 +10°C° 0.5 mm 3 mps 754 mmHg 95%
    20:00 +10°C° 0.5 mm 4 mps 753 mmHg 96%
    21:00 +10°C° 0.5 mm 4 mps 753 mmHg 97%
    22:00 +10°C° 0.4 mm 4 mps 752 mmHg 97%
    23:00 +11°C° 0.4 mm 4 mps 751 mmHg 97%

    11 June, Thursday

    Time Temperature Precipitation Wind Pressure Humidity
    00:00 +11°C° 0.4 mm 4 mps 751 mmHg 97%
    01:00 +11°C° 0.7 mm 4 mps 750 mmHg 97%
    02:00 +10°C° 0.7 mm 3 mps 749 mmHg 97%
    03:00 +10°C° 0.7 mm 3 mps 748 mmHg 97%
    04:00 +10°C° 0.8 mm 2 mps 748 mmHg 97%
    05:00 +10°C° 0.8 mm 2 mps 747 mmHg 96%
    06:00 +11°C° 0.8 mm 1 mps 747 mmHg 96%
    07:00 +10°C° 0.8 mm 2 mps 747 mmHg 95%
    08:00 +10°C° 0.8 mm 2 mps 746 mmHg 95%
    09:00 +11°C° 0.8 mm 3 mps 746 mmHg 95%
    10:00 +11°C° 2.4 mm 4 mps 746 mmHg 95%
    11:00 +10°C° 2.4 mm 5 mps 745 mmHg 95%
    12:00 +10°C° 2.4 mm 6 mps 745 mmHg 96%
    13:00 +12°C° 0.6 mm 5 mps 745 mmHg 93%
    14:00 +12°C° 0.6 mm 4 mps 745 mmHg 91%
    15:00 +13°C° 0.6 mm 4 mps 745 mmHg 89%
    16:00 +12°C° 1.1 mm 4 mps 745 mmHg 90%
    17:00 +12°C° 1.1 mm 4 mps 745 mmHg 92%
    18:00 +12°C° 1.1 mm 4 mps 745 mmHg 93%
    19:00 +11°C° 0.2 mm 4 mps 745 mmHg 94%
    20:00 +10°C° 0.2 mm 3 mps 746 mmHg 94%
    21:00 +10°C° 0.2 mm 3 mps 746 mmHg 95%
    22:00 +9°C° 0.1 mm 2 mps 746 mmHg 95%
    23:00 +8°C° 0.1 mm 2 mps 746 mmHg 96%
    Show more